Location: Cactus School
(34.5700°N, 118.0931°W)
Time: 20:38:12
(UTC-08:00)

Tiros 1 - Pass Details

Date: 28 November 2019
Orbit: 630 x 664 km, 48.4° (Epoch: 08 December)

Event Time Altitude Azimuth Distance (km) Brightness Sun altitude
Rises 12:31:29 0° 291° (WNW) 2,920 10.5 32.8°
Reaches altitude 10° 12:34:41 10° 313° (NW) 2,010 9.5 32.6°
Maximum altitude 12:37:28 16° 351° (N) 1,667 8.9 32.4°
Drops below altitude 10° 12:40:15 10° 28° (NNE) 2,008 9.3 32.3°
Sets 12:43:27 0° 51° (NE) 2,917 10.1 32.1°
